Change the Weather History Date:

Thursday, April 4, 2013

  Actual Average Record
Temperature  
Mean Temperature 49 °F 61 °F  
Max Temperature 53 °F 74 °F 91 °F (1967)
Min Temperature 44 °F 48 °F 33 °F (1992)
Degree Days  
Heating Degree Days 16 5  
Month to date heating degree days 28 22  
Since 1 July heating degree days 2095 2231  
Cooling Degree Days 0 1  
Month to date cooling degree days 2 4  
Year to date cooling degree days 28 24  
Moisture  
Dew Point 43 °F    
Average Humidity 86    
Maximum Humidity 93    
Minimum Humidity 61    
Precipitation  
Precipitation 0.43 in 0.11 in 1.20 in (1966)
Month to date precipitation 0.75 0.47  
Year to date precipitation 11.97 12.02  
Sea Level Pressure  
Sea Level Pressure 30.06 in    
Wind  
Wind Speed 9 mph (NE)    
Max Wind Speed 17 mph    
Max Gust Speed 29 mph    
Visibility 7 miles    
Events Rain    
T = Trace of Precipitation, MM = Missing Value Source: NWS Daily Summary

Daily Weather History Graph

Daily Weather History Graph

Search for Another Location

Airport or City:

Trip Planner

Search our weather history database for the weather conditions in past years. The results will help you decide how hot, cold, wet, or windy it might be!

Date:

Astronomy

Apr. 04, 2013 Rise Set
Actual Time 7:06 AM EDT 7:46 PM EDT
Civil Twilight 6:41 AM EDT 8:11 PM EDT
Nautical Twilight 6:12 AM EDT 8:41 PM EDT
Astronomical Twilight 5:42 AM EDT 9:11 PM EDT
Moon 3:15 AM EDT (4/4) 2:18 PM EDT (4/4)
Length of Visible Light 13h 29m
Length of Day
12h 39m
Waning Crescent, 34% of the Moon is Illuminated
Apr 4
Waning Crescent
Apr 10
New
Apr 18
First Quarter
Apr 25
Full
May 2
Last Quarter

Hourly Weather History & Observations

Time (EDT) Temp. Windchill Dew Point Humidity Pressure Visibility Wind Dir Wind Speed Gust Speed Precip Events Conditions
12:53 AM 53.1 °F - 39.9 °F 61% 30.22 in 10.0 mi East 4.6 mph - 0.00 in   Overcast
1:53 AM 52.0 °F - 44.1 °F 74% 30.21 in 10.0 mi ENE 5.8 mph - 0.00 in Rain Light Rain
2:53 AM 51.1 °F - 45.0 °F 80% 30.19 in 10.0 mi ENE 5.8 mph - 0.00 in Rain Light Rain
3:53 AM 50.0 °F - 43.0 °F 77% 30.17 in 10.0 mi East 6.9 mph - 0.01 in Rain Light Rain
4:53 AM 50.0 °F - 42.1 °F 74% 30.17 in 10.0 mi ENE 6.9 mph - 0.00 in   Overcast
5:53 AM 51.1 °F - 41.0 °F 68% 30.16 in 10.0 mi ENE 6.9 mph - 0.00 in   Overcast
6:53 AM 50.0 °F - 41.0 °F 71% 30.17 in 10.0 mi ENE 9.2 mph - 0.00 in Rain Light Rain
7:53 AM 48.9 °F - 41.0 °F 74% 30.17 in 10.0 mi ENE 12.7 mph 18.4 mph 0.03 in   Overcast
8:53 AM 50.0 °F - 37.0 °F 61% 30.16 in 10.0 mi ENE 16.1 mph 24.2 mph N/A   Overcast
9:53 AM 48.9 °F - 39.0 °F 69% 30.13 in 8.0 mi ENE 9.2 mph 18.4 mph 0.00 in Rain Light Rain
10:08 AM 48.2 °F - 39.2 °F 71% 30.12 in 5.0 mi ENE 12.7 mph 19.6 mph 0.02 in Rain Light Rain
10:53 AM 46.0 °F 41.0 °F 43.0 °F 89% 30.12 in 2.5 mi ENE 10.4 mph - 0.09 in Rain Rain
11:24 AM 46.4 °F 41.5 °F 44.6 °F 93% 30.10 in 4.0 mi ENE 10.4 mph 18.4 mph 0.04 in Rain Light Rain
11:31 AM 46.4 °F 41.5 °F 44.6 °F 93% 30.09 in 4.0 mi ENE 10.4 mph 18.4 mph 0.05 in Rain Rain
11:34 AM 46.4 °F 40.4 °F 44.6 °F 93% 30.09 in 2.5 mi ENE 13.8 mph 19.6 mph 0.07 in Rain Rain
11:45 AM 46.4 °F 41.5 °F 44.6 °F 93% 30.09 in 2.5 mi ENE 10.4 mph 20.7 mph 0.10 in Rain Rain
11:53 AM 46.9 °F - 44.1 °F 90% 30.09 in 5.0 mi ENE 10.4 mph - 0.10 in Rain Light Rain
12:53 PM 46.9 °F - 45.0 °F 93% 30.06 in 8.0 mi ENE 10.4 mph - 0.00 in Rain Light Rain
1:20 PM 48.2 °F - 44.6 °F 87% 30.05 in 2.5 mi ENE 12.7 mph 21.9 mph 0.03 in Rain Light Rain
1:27 PM 48.2 °F - 46.4 °F 93% 30.05 in 4.0 mi ENE 5.8 mph 16.1 mph 0.04 in Rain Rain
1:53 PM 48.0 °F - 46.0 °F 93% 30.03 in 4.0 mi ENE 12.7 mph - 0.06 in Rain Rain
2:53 PM 48.0 °F - 46.0 °F 93% 30.00 in 10.0 mi NE 12.7 mph - 0.02 in   Overcast
3:09 PM 46.4 °F 40.7 °F 44.6 °F 93% 29.98 in 2.5 mi NE 12.7 mph 19.6 mph 0.05 in Rain Rain
3:18 PM 46.4 °F 41.5 °F 44.6 °F 93% 29.99 in 7.0 mi NE 10.4 mph - 0.05 in Rain Light Rain
3:53 PM 48.0 °F - 46.0 °F 93% 29.97 in 5.0 mi NNE 11.5 mph - 0.06 in Rain Light Rain
4:08 PM 46.4 °F 41.5 °F 44.6 °F 93% 29.96 in 2.0 mi NE 10.4 mph 18.4 mph 0.02 in Rain Rain
4:31 PM 46.4 °F 41.5 °F 44.6 °F 93% 29.94 in 4.0 mi NNE 10.4 mph - 0.04 in Rain Light Rain
4:53 PM 46.9 °F - 45.0 °F 93% 29.93 in 3.0 mi NNE 10.4 mph - 0.05 in Rain Light Rain
5:53 PM 48.0 °F - 46.0 °F 93% 29.92 in 10.0 mi NNE 9.2 mph - 0.01 in   Overcast
6:53 PM 46.9 °F - 45.0 °F 93% 29.92 in 6.0 mi North 10.4 mph - 0.00 in Rain Light Rain
7:53 PM 46.0 °F 41.4 °F 44.1 °F 93% 29.94 in 10.0 mi North 9.2 mph - 0.00 in   Overcast
8:53 PM 46.0 °F 41.9 °F 43.0 °F 89% 29.93 in 6.0 mi North 8.1 mph - 0.00 in   Overcast
9:53 PM 45.0 °F 41.8 °F 43.0 °F 93% 29.94 in 10.0 mi NNW 5.8 mph - N/A   Overcast
10:53 PM 45.0 °F 41.8 °F 43.0 °F 93% 29.96 in 4.0 mi North 5.8 mph - N/A   Overcast
11:53 PM 44.1 °F 40.8 °F 42.1 °F 93% 29.95 in 10.0 mi North 5.8 mph - N/A   Overcast